CZ-6A DEB, 56241

Orbit data source: Space-Track

CZ-6A DEB, 56241 is space debris in SSO originally from a launch on Fri, 11 Nov 2022 UTC launched from the Taiyaun Space Center, China (TSC). Debris objects in space refer to the collection of defunct objects orbiting the Earth. Examples of debris include non-operational satellites, rocket bodies, and fragments generated from explosions, collisions, or faulty payload assembly.

Loading next visibility...
Identifier
56241, 2022-151ABH
Orbit
SSO
Country
Flag of CNCN / PRC
Related business
Manufacturer
SAST
Mission
Spacecraft
Bus & Motor
Unknown
Mass
Unknown
Launch date (UTC)
2022-11-11 (4 years ago)
Launch vehicle
Unknown
Launch site
Taiyaun Space Center, China (TSC)
Object type
Payload
Rocket body
Debris
Shape & HBR
Unknown shape, 0.1 m
Radar Cross Section
Medium (>0.1 m² and <1 m²)

Expand to show TLE details & history
Last TLE update: 2 days ago

TLE from 2 days ago
0 CZ-6A DEB
1 56241U 22151ABH 26264.24785919  .00003385  00000-0  62512-3 0  9992
2 56241  98.8248   4.1285 0080419  23.0665 337.4114 14.64114853192263
Epoch: 2026-09-21T05:56Z
TLE epoch observation values (Epoch: 2026-09-21T05:56:55.034Z)
Latitude
0.00005°
Longitude
-85.23123°
Altitude
630.541 km
Speed
7.571 km/s
True Right ascension
00h 16m 30s
True Declination
0° 00' 00"
Sunlit
Object was in full shadow at epoch
Visualization orbit readout
Latitude
Unknown
Longitude
Unknown
Altitude
Unknown
Speed
Unknown
Apparent Right ascension
Unknown
Apparent Declination
Unknown
Sunlit
N/A
Visualization observer readout
Local Sidereal Time
15:36:30
Azimuth
Unknown
Elevation
Unknown
Doppler factor
Unknown
Orbital elements
Apogee altitude
733.761 km
Perigee altitude
620.287 km
Semi-major axis
7,055.161 km
Eccentricity
0.00804
Inclination
98.8248°
RAAN
4.1285°
Arg. of periapsis
23.0665°
True anomaly
337.05412°
Mean anomaly
337.4114°
Eccentric anomaly
337.23309°
Mean motion
3.66254 °/min
Orbital period
98.29 mins
BSTAR
0.00062512
Loading maneuver chart data...
Computing Atmospheric mass density...
Loading historical data...
Loading historical data...
Loading historical data...
Loading historical data...
Loading historical data...
Loading historical data...
Loading historical data...

Documentation

Showing up to 5 results
|